[[{"header":{"parameterUnit":"m.s-1","parameterCategory":1,"la1":30.2992,"la2":30.254,"lo1":-89.0895,"lo2":-89.0443,"dy":0.0025,"dx":0.0025,"nx":19,"ny":19,"refTime":"2026-05-17T21:00:00:Z","depth":0,"parameterNumber":2,"parameterNumberName":"U-component_of_WINDS"},"data":[0,0,0,-4.6766,-4.6768,-4.6863,-4.6863,-4.6995,-4.6996,0,0,0,0,0,0,0,0,0,0,0,-4.6745,-4.6746,-4.6766,-4.6768,-4.6863,-4.6863,-4.6995,-4.6996,0,0,0,0,0,0,0,0,0,0,0,-4.6745,-4.6746,-4.6748,-4.6769,-4.6863,-4.6863,-4.6994,-4.6919,0,0,0,0,0,0,0,0,0,0,-4.6825,-4.6813,-4.6746,-4.6748,-4.6769,-4.6863,-4.6863,-4.6915,-4.6923,-4.6957,0,-4.6989,0,-4.6995,-4.7006,-4.7006,0,0,0,-4.6762,-4.6806,-4.6825,-4.6748,-4.677,-4.6863,-4.6819,-4.692,-4.6929,-4.6968,-4.6991,-4.6996,-4.6997,-4.7007,-4.7007,-4.7221,-4.7222,0,0,-4.6757,-4.6766,-4.6819,-4.6832,-4.682,-4.6816,-4.6822,-4.6925,-4.695,-4.6992,-4.6999,-4.6999,-4.7008,-4.7009,-4.722,-4.7221,0,0,0,-4.6746,-4.6763,-4.6779,-4.6827,-4.6843,-4.6819,-4.6825,-4.6946,-4.695,-4.7,-4.7001,-4.7008,-4.701,-4.7218,-4.722,-4.7291,0,0,0,-4.6743,-4.6756,-4.6777,-4.6783,-4.6842,-4.6896,-4.6844,-4.6943,-4.6955,-4.7,-4.7008,-4.7012,-4.7217,-4.7219,-4.7286,-4.7322,0,0,0,-4.6737,-4.6755,-4.6772,-4.6784,-4.6825,-4.6894,-4.6905,-4.6945,-4.6956,-4.7006,-4.7012,-4.7216,-4.7219,-4.7281,-4.7314,-4.7379,0,0,0,-4.6732,-4.6834,-4.6773,-4.6887,-4.6824,-4.6938,-4.6904,-4.6988,-4.704,-4.7009,-4.7217,-4.722,-4.728,-4.731,-4.7374,-4.7433,-4.7459,0,0,-4.6865,-4.685,-4.6916,-4.6865,-4.6992,-4.6923,-4.706,-4.7099,-4.7096,-4.7179,-4.7184,-4.7287,-4.7314,-4.7378,-4.7607,-4.7628,0,0,0,-4.6961,-4.7008,-4.704,-4.7091,-4.7124,-4.7154,-4.7172,-4.7186,-4.7256,-4.7141,-4.7329,-4.7345,-4.7382,-4.7409,-4.7427,-4.7457,-4.7234,-4.7234,-4.7233,-4.7159,-4.715,-4.7259,-4.7261,-4.7311,-4.7328,-4.7366,-4.7388,-4.7365,-4.741,-4.7433,-4.7573,-4.7606,-4.7619,-4.7651,-4.7466,-4.7466,-4.7466,-4.7467,-4.7351,-4.7415,-4.7382,-4.7475,-4.7465,-4.7542,-4.7563,-4.7543,-4.7613,-4.7555,-4.7587,-4.7521,-4.7642,-4.7669,-4.7472,-4.7471,-4.747,-4.747,-4.7469,-4.7477,-4.7506,-4.7523,-4.7595,-4.7652,-4.7651,-4.7719,-4.7708,-4.7697,-4.773,-4.7752,-4.7751,-4.7745,-4.7742,-4.7742,-4.7743,-4.7743,-4.7743,-4.7744,-4.76,-4.7617,-4.7677,-4.7721,-4.7752,-4.7791,-4.781,-4.7839,-4.7869,-4.7854,-4.7855,-4.7825,-4.7657,-4.7613,-4.7751,-4.775,-4.7749,-4.7748,-4.7748,-4.7792,-4.7747,-4.7839,-4.787,-4.792,-4.7976,-4.7962,-4.8023,-4.8046,-4.808,-4.8044,-4.7923,-4.7906,-4.7892,-4.7855,-4.8047,-4.8047,-4.8047,-4.8047,-4.7897,-4.7888,-4.7979,-4.8029,-4.8076,-4.8073,-4.8175,-4.8191,-4.8201,-4.8214,-4.8185,-4.8137,-4.8123,-4.8114,-4.8095,-4.8061,-4.8301,-4.8301,-4.8302,-4.8013,-4.8009,-4.8098,-4.8108,-4.8147,-4.818,-4.8275,-4.8332,-4.8334,-4.8311,-4.8223,-4.8213,-4.8135,-4.811,-4.8082,-4.8053,-4.799,0,0]},{"header":{"parameterUnit":"m.s-1","parameterCategory":1,"la1":30.2992,"la2":30.254,"lo1":-89.0895,"lo2":-89.0443,"dy":0.0025,"dx":0.0025,"nx":19,"ny":19,"refTime":"2026-05-17T21:00:00:Z","depth":0,"parameterNumber":3,"parameterNumberName":"V-component_of_WINDS"},"data":[0,0,0,3.1644,3.1646,3.1729,3.173,3.1841,3.1842,0,0,0,0,0,0,0,0,0,0,0,3.1623,3.1624,3.1644,3.1646,3.1729,3.173,3.1841,3.1842,0,0,0,0,0,0,0,0,0,0,0,3.1623,3.1624,3.1625,3.1646,3.1729,3.173,3.1841,3.1776,0,0,0,0,0,0,0,0,0,0,3.1694,3.1678,3.1623,3.1625,3.1647,3.1729,3.173,3.1773,3.178,3.1806,0,3.1831,0,3.1839,3.185,3.1851,0,0,0,3.1643,3.1672,3.1692,3.1625,3.1648,3.1729,3.1691,3.1777,3.1785,3.1816,3.1832,3.1836,3.184,3.1851,3.1852,3.2017,3.2018,0,0,3.1638,3.1639,3.1686,3.1697,3.1686,3.1688,3.1693,3.1781,3.1799,3.1833,3.1839,3.1842,3.1852,3.1853,3.2016,3.2017,0,0,0,3.1627,3.1636,3.1654,3.1693,3.1708,3.1691,3.1697,3.1795,3.1801,3.184,3.1844,3.1852,3.1854,3.2015,3.2016,3.2065,0,0,0,3.1624,3.163,3.1652,3.1653,3.1706,3.1753,3.1709,3.1795,3.1805,3.1843,3.1852,3.1855,3.2014,3.2016,3.2062,3.2087,0,0,0,3.1616,3.1629,3.1643,3.1653,3.169,3.1751,3.1762,3.1797,3.1807,3.1851,3.1855,3.2013,3.2015,3.2058,3.2082,3.2133,0,0,0,3.1607,3.1682,3.1643,3.1729,3.1689,3.1781,3.1761,3.1829,3.1872,3.1853,3.2014,3.2016,3.2057,3.2079,3.2129,3.2176,3.2195,0,0,3.1703,3.1694,3.1744,3.1712,3.1812,3.1768,3.1875,3.1912,3.1914,3.1982,3.1986,3.2063,3.2082,3.2132,3.2303,3.2319,0,0,0,3.1775,3.1811,3.1837,3.188,3.1912,3.1941,3.1962,3.1976,3.2035,3.195,3.2094,3.2105,3.2135,3.2157,3.217,3.2196,3.2026,3.2026,3.2026,3.1911,3.1912,3.1995,3.2007,3.2048,3.2071,3.2105,3.2127,3.2113,3.2148,3.2168,3.2272,3.2298,3.2308,3.2335,3.2192,3.2193,3.2193,3.2193,3.2051,3.2103,3.2087,3.2162,3.2163,3.2225,3.2251,3.224,3.2298,3.2256,3.2282,3.2236,3.2325,3.2349,3.2197,3.2196,3.2195,3.2195,3.2195,3.214,3.2166,3.2183,3.2247,3.2296,3.2305,3.2363,3.236,3.2358,3.2384,3.2406,3.2405,3.2405,3.2395,3.2395,3.2395,3.2396,3.2396,3.2396,3.2226,3.2245,3.2295,3.2338,3.2366,3.2403,3.2429,3.2456,3.2486,3.248,3.248,3.2464,3.2334,3.2302,3.2402,3.2401,3.24,3.24,3.2399,3.2368,3.2337,3.2414,3.2443,3.2494,3.2544,3.2541,3.2599,3.2621,3.265,3.263,3.2534,3.2524,3.2513,3.2486,3.2628,3.2628,3.2628,3.2628,3.2444,3.244,3.252,3.2567,3.2612,3.2619,3.2707,3.2729,3.2745,3.276,3.2739,3.2703,3.2693,3.2689,3.2675,3.265,3.283,3.283,3.283,3.2532,3.2533,3.2608,3.2627,3.2667,3.2702,3.2786,3.284,3.2852,3.2839,3.2771,3.2762,3.2705,3.2686,3.267,3.2648,3.2602,0,0]}]]